Weather Roundup
Issued by NWS Springfield, MO

Home | Current Version | Previous Version | Text Only | Print | Product List | Glossary On
Versions: 1 2 3 4 5 6 7 8 9 10 11 12 13 14 15 16 17 18 19 20 21 22 23 24 25 26 27 28 29 30 31 32 33 34 35 36 37 38 39 40 41 42 43 44 45 46 47 48 49 50
000
NZUS99 KSGF 280607
HRRSGF

HOURLY WEATHER
NATIONAL WEATHER SERVICE SPRINGFIELD MO
100 AM CDT WED JUN 28 2017

......SGF CWA......

CITY           SKY/WX    TMP DP  RH WIND       PRES   REMARKS
SPRINGFIELD    CLEAR     70  64  81 S15       30.00F
6HR MIN TEMP:  70; 6HR MAX TEMP:  79;

JOPLIN         CLEAR     74  65  73 S13       29.96F
6HR MIN TEMP:  74; 6HR MAX TEMP:  84;

WEST PLAINS    CLEAR     66  62  87 S5        30.07F
6HR MIN TEMP:  65; 6HR MAX TEMP:  77;

ROLLA          CLEAR     67  63  87 S9        30.02F
6HR MIN TEMP:  67; 6HR MAX TEMP:  78;

OSAGE BEACH    MOCLDY    69  64  84 S8        30.01F
BRANSON          N/A     66  63  88 SE8       30.05S

......SURROUNDING SGF CWA......

CITY           SKY/WX    TMP DP  RH WIND       PRES   REMARKS
CHANUTE          N/A    N/A N/A N/A MISG      29.90F
PARSONS        CLOUDY    75  65  70 S8        29.93F
COFFEYVILLE    CLEAR     74  65  73 S10       29.92F HAZE
EMPORIA        CLEAR     73  65  75 S16G25    29.87S
GROVE OK       CLEAR     73  64  73 S9        29.98S
ROGERS AR      CLEAR     70  62  76 SE8       30.02F
SILOAM SPRINGS CLEAR     70  61  73 S7        30.01F
HARRISON AR    CLEAR     66  62  87 SE5       30.05S
NEAR YELLVILLE CLEAR     68  59  73 SE3       30.02S

......KANSAS AND MISSOURI......

CITY           SKY/WX    TMP DP  RH WIND       PRES   REMARKS
KANSAS CTY INT CLOUDY    74  64  71 S17       29.87F
DOWNTOWN KC    CLOUDY    76  64  66 S14G23    29.87F
COLUMBIA       MOCLDY    70  64  81 S12       30.00R
SEDALIA        CLEAR     73  66  78 S14       29.96F
ST JOSEPH      CLEAR     74  67  78 S14       29.85F
ST LOUIS       CLEAR     73  54  51 S9        30.04F
SPIRIT OF STL  CLEAR     69  59  70 S3        30.02F
KIRKSVILLE     PTCLDY    67  58  72 SE12      29.93F
WICHITA        MOCLDY    78  66  66 S22G31    29.84F
TOPEKA         PTCLDY    76  65  68 S14G22    29.85R
OLATHE         CLOUDY    71  65  81 S14       29.88F

......TENNESSEE......

CITY           SKY/WX    TMP DP  RH WIND       PRES   REMARKS
MEMPHIS        PTCLDY    76  64  66 SE7       30.05F
NASHVILLE      CLEAR     65  58  78 CALM      30.11F

......ARKANSAS.......

CITY           SKY/WX    TMP DP  RH WIND       PRES   REMARKS
FAYETTEVILLE   CLEAR     70  61  73 S3        30.02S
FT SMITH       CLEAR     71  66  84 NE6       30.00S
LITTLE ROCK    PTCLDY    69  67  93 S3        30.02F

......OKLAHOMA.......

CITY           SKY/WX    TMP DP  RH WIND       PRES   REMARKS
TULSA          PTCLDY    78  68  71 S13       29.92F
PONCA CITY     CLOUDY    79  66  64 S12G24    29.87F
MCALESTER      CLEAR     76  65  68 SE5       29.98S
OKLAHOMA CITY  PTCLDY    75  66  73 S13G23    29.93F

......IOWA............

CITY           SKY/WX    TMP DP  RH WIND       PRES   REMARKS
DES MOINES     MOCLDY    70  59  68 SE13      29.81F
QUAD CITIES    PTCLDY    59  50  72 SE5       29.98F

......ILLINOIS........

CITY           SKY/WX    TMP DP  RH WIND       PRES   REMARKS
QUINCY         CLEAR     66  54  65 S9        29.99S
CHICAGO        PTCLDY    61  46  57 S6        30.04S




USA.gov is the U.S. government's official web portal to all federal, state and local government web resources and services.